CAPE
3 2 2 1 0 0 0 0 0 0 0 0 0 0 0 0 0 0 0 0 0 0 0 0 0 2 0 0 0 0 0 0 0 0 0 0 0 0 0 0 5 30 65 21 31 102 152
3 2 2 1 0 0 0 0 0 0 0 0 0 0 0 0 0 0 0 0 0 0 0 0 1 1 0 0 0 0 0 0 0 0 0 0 0 0 0 0 5 30 51 119 148 84 187
3 1 1 1 0 0 0 0 0 0 0 0 0 0 0 0 0 0 0 0 0 0 0 1 3 0 0 0 0 0 0 0 0 0 0 0 0 0 0 0 0 17 27 50 58 41 46
1 1 2 2 0 0 0 0 0 0 0 0 0 0 0 0 0 0 0 0 0 0 0 0 2 0 0 0 0 0 0 0 0 0 0 0 0 0 0 0 9 14 28 23 36 89 31
1 1 1 0 0 0 0 0 0 0 0 0 0 0 0 0 0 0 0 0 0 0 0 1 0 0 0 0 0 0 0 0 0 0 0 0 0 0 0 0 7 7 9 30 64 67 32
1 2 1 3 0 0 0 0 0 0 0 0 0 0 0 0 0 0 0 0 0 0 0 0 0 0 0 0 0 0 0 0 0 0 0 0 0 0 0 0 0 12 1 27 40 25 5
1 2 3 1 0 0 0 0 0 0 0 0 0 0 0 0 0 0 0 0 0 0 0 0 0 0 0 0 0 0 0 0 0 0 0 0 0 0 0 0 0 4 3 0 31 80 10
2 0 0 0 0 0 0 0 0 0 0 0 0 0 0 0 0 0 0 0 0 0 0 0 0 0 0 0 0 0 0 0 0 0 0 0 0 0 0 0 0 0 0 0 0 49 16
0 0 0 0 0 0 0 0 0 0 0 0 0 0 0 0 0 0 0 0 0 0 0 0 0 0 0 0 0 0 0 0 0 0 0 0 0 0 0 0 0 0 0 0 2 5 2
0 0 0 0 0 0 0 0 0 0 0 0 0 0 0 0 0 0 0 0 0 0 0 0 0 0 0 0 0 0 0 0 0 0 0 0 0 0 0 0 0 0 0 0 3 33 25
0 0 0 0 0 0 0 0 0 0 0 0 0 0 0 0 0 0 0 0 0 0 0 0 0 0 0 0 0 0 0 0 0 0 0 0 0 0 0 0 0 0 0 0 0 0 0
0 0 0 0 0 0 0 0 0 0 0 0 0 0 0 0 0 0 0 0 0 0 0 0 0 0 0 0 0 0 0 0 0 0 0 0 0 0 0 0 0 0 0 0 0 0 0
0 0 0 0 0 0 0 0 0 0 0 0 0 0 0 0 0 0 0 0 0 0 0 0 0 0 0 0 0 0 0 0 0 0 0 0 0 0 0 0 0 0 0 0 0 0 0
0 0 0 0 0 0 0 0 0 0 0 0 0 0 0 0 0 0 0 0 0 0 0 0 0 0 0 0 0 0 0 0 0 0 0 0 0 0 0 0 0 0 0 0 0 0 0
0 0 0 0 0 0 0 0 0 0 0 0 0 0 0 0 0 0 0 0 0 0 0 0 0 0 0 0 0 0 0 0 0 0 0 0 0 0 0 0 0 0 0 0 0 0 0
0 0 0 0 0 0 0 0 0 0 0 0 0 0 0 0 0 0 0 0 0 0 0 0 0 0 0 0 0 0 0 0 0 0 0 0 0 0 0 0 0 0 0 0 0 0 0
0 0 0 0 0 0 0 0 0 0 0 0 0 0 0 0 0 0 0 0 0 0 0 0 0 0 0 1 0 0 0 0 0 1 0 0 0 0 0 0 0 0 0 0 0 0 0
0 0 0 0 0 0 0 0 0 0 0 0 0 0 0 0 0 0 0 0 0 3 0 0 9 3 8 2 6 15 5 0 0 0 0 0 0 0 0 0 0 0 0 0 0 0 0
0 0 0 0 0 0 0 0 0 0 0 0 0 0 1 0 0 0 0 0 1 15 7 5 25 15 5 0 7 27 14 0 0 0 0 0 0 0 0 0 0 0 0 0 0 0 0
0 0 0 0 0 0 0 0 0 0 0 0 4 3 0 0 0 0 3 2 9 12 3 10 22 39 37 9 0 1 1 0 0 0 0 0 0 0 0 0 0 0 0 0 0 0 0
0 0 0 0 0 0 0 0 0 0 0 0 6 5 9 7 0 0 10 9 22 34 28 0 18 2 9 26 11 0 0 0 0 0 0 0 0 0 0 0 3 0 0 0 0 0 0
0 0 0 0 0 0 0 0 0 0 0 0 22 8 2 2 13 7 4 0 48 49 55 32 25 9 3 17 2 0 0 0 3 0 0 0 0 0 0 0 0 0 0 0 0 0 0
0 0 0 0 0 0 0 0 0 2 5 9 18 4 3 0 6 10 1 3 11 61 93 70 28 44 38 24 20 3 1 0 0 0 0 0 0 0 0 0 0 0 0 0 0 0 0
0 0 0 0 0 0 0 0 2 5 10 18 32 9 0 0 7 10 15 7 4 66 64 50 57 27 36 56 18 0 0 0 0 0 0 0 0 0 0 0 0 0 0 0 0 0 0
0 0 0 0 0 0 3 2 5 6 11 19 47 1 1 0 6 1 5 16 21 63 112 94 76 83 4 10 5 8 0 0 0 0 0 0 0 0 0 0 0 1 0 0 0 0 0
0 0 0 0 1 0 7 3 2 6 10 24 19 0 2 0 0 4 8 6 8 23 45 61 70 100 85 6 4 0 0 29 0 0 0 0 0 0 0 0 0 0 0 0 0 0 7
0 0 0 0 1 4 1 4 8 11 14 17 7 0 1 2 0 1 7 3 10 16 8 47 74 47 39 1 5 2 0 0 0 0 0 0 0 0 0 0 0 0 0 0 0 22 8
0 0 0 1 5 6 4 5 7 13 12 8 4 1 0 0 0 1 3 11 16 22 5 10 3 2 35 35 36 42 5 0 0 0 0 0 0 0 0 0 0 0 0 0 0 0 0
0 0 1 3 3 5 4 6 7 9 4 10 4 1 1 1 0 0 2 1 2 17 18 8 25 10 14 3 10 1 3 0 0 0 0 0 0 0 0 0 0 0 0 0 0 0 0
CIN
0 0 0 0 0 0 0 0 0 0 0 0 0 0 0 0 0 0 0 0 0 0 0 0 0 0 0 0 0 0 0 0 0 0 0 0 0 0 0 0 -25 -36 -105 -63 -82 -74 -84
0 0 0 0 0 0 0 0 0 0 0 0 0 0 0 0 0 0 0 0 0 0 0 0 0 0 0 0 0 0 0 0 0 0 0 0 0 0 0 0 -5 -9 -18 -4 -30 -2 -82
0 0 0 0 0 0 0 0 0 0 0 0 0 0 0 0 0 0 0 0 0 0 0 0 0 0 0 0 0 0 0 0 0 0 0 0 0 0 0 0 0 -6 -10 -14 -47 -9 -4
0 0 0 0 0 0 0 0 0 0 0 0 0 0 0 0 0 0 0 0 0 0 0 0 0 0 0 0 0 0 0 0 0 0 0 0 0 0 0 0 -3 -6 -9 -3 -6 -4 -4
0 0 0 0 0 0 0 0 0 0 0 0 0 0 0 0 0 0 0 0 0 0 0 0 0 0 0 0 0 0 0 0 0 0 0 0 0 0 0 0 -3 -5 -4 -4 -4 -4 -5
0 0 0 0 0 0 0 0 0 0 0 0 0 0 0 0 0 0 0 0 0 0 0 0 0 0 0 0 0 0 0 0 0 0 0 0 0 0 0 0 0 -3 -2 -5 -7 -7 -4
0 0 0 0 0 0 0 0 0 0 0 0 0 0 0 0 0 0 0 0 0 0 0 0 0 0 0 0 0 0 0 0 0 0 0 0 0 0 0 0 0 -3 -1 0 -3 -3 -11
0 0 0 0 0 0 0 0 0 0 0 0 0 0 0 0 0 0 0 0 0 0 0 0 0 0 0 0 0 0 0 0 0 0 0 0 0 0 0 0 0 0 0 0 0 -5 -23
0 0 0 0 0 0 0 0 0 0 0 0 0 0 0 0 0 0 0 0 0 0 0 0 0 0 0 0 0 0 0 0 0 0 0 0 0 0 0 0 0 0 0 0 -4 -25 -51
0 0 0 0 0 0 0 0 0 0 0 0 0 0 0 0 0 0 0 0 0 0 0 0 0 0 0 0 0 0 0 0 0 0 0 0 0 0 0 0 0 0 0 0 -5 -6 -5
0 0 0 0 0 0 0 0 0 0 0 0 0 0 0 0 0 0 0 0 0 0 0 0 0 0 0 0 0 0 0 0 0 0 0 0 0 0 0 0 0 0 0 0 0 0 0
0 0 0 0 0 0 0 0 0 0 0 0 0 0 0 0 0 0 0 0 0 0 0 0 0 0 0 0 0 0 0 0 0 0 0 0 0 0 0 0 0 0 0 0 0 0 0
0 0 0 0 0 0 0 0 0 0 0 0 0 0 0 0 0 0 0 0 0 0 0 0 0 0 0 0 0 0 0 0 0 0 0 0 0 0 0 0 0 0 0 0 0 0 0
0 0 0 0 0 0 0 0 0 0 0 0 0 0 0 0 0 0 0 0 0 0 0 0 0 0 0 0 0 0 0 0 0 0 0 0 0 0 0 0 0 0 0 0 0 0 0
0 0 0 0 0 0 0 0 0 0 0 0 0 0 0 0 0 0 0 0 0 0 0 0 0 0 0 0 0 0 0 0 0 0 0 0 0 0 0 0 0 0 0 0 0 0 0
0 0 0 0 0 0 0 0 0 0 0 0 0 0 0 0 0 0 0 0 0 0 0 0 0 0 0 0 0 0 0 0 0 0 0 0 0 0 0 0 0 0 0 0 0 0 0
0 0 0 0 0 0 0 0 0 0 0 0 0 0 0 0 0 0 0 0 0 0 0 0 0 0 0 -4 -1 -3 0 0 0 -3 0 0 0 0 0 0 0 0 0 0 0 0 0
0 0 0 0 0 0 0 0 0 0 0 0 0 0 0 0 0 0 -1 0 0 -6 -1 -4 -6 -7 -15 -3 -2 -1 0 -1 0 0 0 0 0 0 0 0 0 0 0 0 0 0 0
0 0 0 0 0 0 0 0 0 0 0 0 0 0 -2 0 -1 0 -1 0 -6 -5 -12 -42 -10 -7 -14 0 -3 0 0 0 0 0 0 0 0 0 0 0 0 0 0 0 0 0 0
0 0 0 0 0 0 0 0 0 0 0 0 -2 -1 0 0 0 -2 -6 -4 -6 -6 -7 -36 -15 -4 -4 -9 -2 -1 0 0 0 0 0 0 0 0 0 0 0 0 0 0 0 0 0
0 0 0 0 0 0 0 0 0 0 0 0 -2 -1 -3 0 0 -1 -3 -6 -8 -5 -16 -3 -15 -16 -13 -3 -4 0 0 0 0 0 0 0 0 0 0 0 -7 0 0 0 0 0 0
0 0 0 0 0 0 0 0 0 0 0 0 0 0 -2 -1 -1 -2 -2 -3 -4 -7 -9 -6 -7 -56 -21 -5 -8 0 -4 0 0 0 0 0 0 0 0 0 0 0 0 0 0 0 0
0 0 0 0 0 0 0 0 0 -2 -2 -1 -3 -4 -1 -1 0 -1 -2 -3 -5 -5 -4 -4 -11 -5 -6 -7 -5 -7 -6 0 0 0 0 0 0 0 0 0 0 0 0 0 0 0 0
0 0 0 0 0 0 0 0 0 -1 -2 -1 0 -1 0 0 0 -1 -2 -1 -8 -3 -4 -3 -3 -10 -5 -7 -6 -3 0 0 0 0 0 0 0 0 0 0 0 0 0 0 -4 0 0
0 0 0 0 0 0 0 0 0 -2 -1 0 0 -3 0 0 0 -1 -1 0 -1 -2 -3 -19 -3 -9 -51 -5 -8 -3 -2 0 0 0 0 0 0 0 0 0 0 -5 0 0 0 0 -4
0 0 0 0 0 0 0 0 -1 -2 -4 0 0 -6 0 0 0 0 0 -1 -1 -1 -4 -16 -18 -3 -5 -23 -16 0 0 -6 0 0 0 0 0 0 0 0 0 0 0 0 0 0 -58
0 0 0 0 0 0 -1 0 0 0 -1 0 0 0 0 0 0 0 0 0 -1 -1 -3 -4 -3 -7 -11 -8 -14 -5 0 0 0 0 0 0 0 0 0 0 0 0 0 0 0 -48 -116
0 0 0 0 0 0 0 0 0 0 0 0 0 -2 0 0 0 0 0 0 -1 0 -1 -11 -2 -24 -4 -6 -2 -2 -3 0 0 0 0 0 0 0 0 0 0 0 0 0 0 0 0
0 0 0 0 0 -1 0 0 0 0 0 0 0 0 0 0 0 0 -1 -2 -7 -1 -1 -2 0 -2 -3 0 -1 -1 -2 -6 0 0 0 0 0 0 0 0 0 0 0 0 0 0 0
Wind_Speed
32 33 33 34 34 35 36 36 37 37 38 39 39 40 40 40 40 40 40 40 38 37 36 31 23 20 17 14 18 11 14 5 10 10 16 25 23 22 32 34 29 30 9 4 14 19 11
33 33 34 34 35 36 37 37 38 39 40 41 42 42 43 43 43 43 43 41 39 39 35 27 16 12 14 15 13 10 7 3 5 13 14 18 18 18 25 36 35 29 25 28 20 9 11
33 34 35 35 36 37 38 39 40 40 41 42 43 44 45 46 46 46 43 42 41 38 34 29 15 8 12 9 18 6 3 3 5 13 13 15 14 13 17 31 36 36 33 17 24 5 6
34 35 35 36 37 38 39 40 41 42 42 43 44 45 46 47 47 47 45 44 41 35 33 27 11 9 21 16 22 27 8 5 5 5 17 15 23 27 27 29 37 38 29 37 15 5 6
35 35 36 37 38 40 40 41 42 43 44 45 46 47 47 48 47 45 46 45 40 30 27 17 12 13 27 14 9 11 7 8 7 6 8 13 18 20 24 20 41 34 37 26 24 8 5
35 36 37 38 40 41 41 42 44 45 46 47 48 48 49 50 48 46 46 45 29 22 20 16 25 21 23 17 12 11 13 9 10 10 11 12 15 18 21 21 27 21 15 30 24 13 15
36 37 38 39 40 41 42 44 45 46 47 48 49 50 50 49 47 46 43 37 40 26 29 35 26 25 27 21 21 10 13 12 12 14 16 15 18 26 30 28 19 37 25 20 21 13 13
37 38 39 40 41 42 43 45 46 47 48 48 50 50 51 50 47 45 39 39 36 35 51 39 42 51 47 42 34 17 13 17 18 20 16 16 29 21 19 32 42 42 39 29 29 12 10
37 38 39 40 42 43 44 46 46 46 46 48 49 50 51 50 46 38 35 41 40 39 44 50 28 33 29 32 33 22 19 20 21 22 22 23 20 21 21 23 28 25 34 37 26 13 25
37 38 39 40 41 42 43 44 45 45 45 45 47 48 48 47 32 38 40 42 41 37 38 40 23 26 25 27 39 29 22 22 24 26 23 24 26 18 21 22 22 27 23 38 39 36 17
35 36 37 38 39 40 41 43 44 45 46 46 46 48 40 13 31 34 42 40 39 31 38 16 16 21 20 28 21 31 25 27 29 23 26 27 23 22 21 28 28 42 26 29 38 37 38
34 35 35 36 35 37 40 42 45 48 52 52 42 36 43 25 15 17 28 23 32 31 36 23 26 29 28 27 41 31 31 33 34 36 34 45 30 37 29 25 46 41 37 32 32 38 49
33 33 33 34 35 38 41 43 44 50 49 49 43 27 20 19 22 34 32 23 33 33 33 30 36 37 38 37 36 44 35 39 39 45 41 42 50 34 40 31 32 36 35 28 24 28 24
31 32 33 34 36 39 41 41 44 51 50 49 45 22 18 14 24 30 27 18 33 32 34 37 39 42 39 34 37 36 44 44 43 45 39 39 38 41 31 33 23 26 27 21 25 21 19
30 31 33 35 37 38 40 42 46 51 52 43 29 31 18 14 30 24 22 22 29 28 32 40 42 40 36 33 30 36 49 50 45 48 51 42 55 33 50 34 32 27 49 29 43 43 41
29 31 33 34 36 37 38 42 47 49 52 48 36 27 16 23 27 20 18 19 23 28 31 39 43 40 45 40 36 31 34 46 43 45 56 56 42 49 35 36 42 55 25 42 47 45 44
28 30 31 33 34 35 38 41 47 50 53 48 30 29 24 29 23 16 17 25 31 32 28 34 40 42 41 39 36 36 32 29 23 38 48 59 54 45 45 45 47 43 48 40 45 45 43
28 29 30 32 33 34 38 40 46 50 53 44 31 33 29 26 29 22 25 29 30 32 27 28 34 37 35 35 38 36 35 32 29 31 40 48 55 55 50 48 42 43 45 36 39 40 46
28 28 29 31 31 32 35 39 45 47 48 43 34 30 26 35 26 31 31 33 33 27 29 26 33 32 34 36 38 34 32 32 35 31 29 29 49 58 54 48 42 55 45 51 41 40 48
27 27 28 30 30 31 32 36 41 42 42 37 31 35 29 25 26 29 33 31 28 24 25 30 36 31 33 35 34 34 32 29 34 34 31 32 41 53 56 47 37 41 47 43 53 41 42
27 26 27 28 28 30 30 32 35 37 36 31 29 23 18 23 19 13 15 23 29 24 16 24 31 26 32 34 33 32 33 33 29 26 27 33 44 46 52 45 38 37 41 42 43 45 40
26 26 27 28 28 28 28 29 28 27 32 24 23 24 24 21 18 14 9 15 21 22 29 34 34 26 31 32 31 34 33 32 29 27 25 27 38 40 48 45 40 40 41 45 44 45 38
26 24 25 25 24 24 24 24 20 23 25 19 22 21 21 18 16 14 12 10 10 13 19 11 31 34 33 31 32 34 34 35 36 34 29 26 28 36 49 41 42 44 36 43 45 40 41
25 24 23 22 21 20 20 15 15 19 17 14 15 18 17 15 12 10 10 8 7 6 7 5 27 32 32 35 35 36 36 38 38 37 32 31 32 34 42 37 47 38 31 34 32 42 39
24 23 23 20 19 17 15 11 13 15 16 15 15 15 13 14 11 9 8 8 6 6 2 9 9 24 4 32 34 34 35 35 40 38 36 32 33 34 36 36 33 34 31 36 32 28 29
24 24 22 19 18 15 12 11 11 13 15 14 11 10 9 12 13 10 8 6 6 9 2 5 6 12 19 24 29 34 29 30 38 45 33 34 33 34 34 37 40 30 33 25 30 36 25
24 23 20 20 18 14 11 11 10 10 14 14 13 7 9 8 5 6 8 7 7 8 6 5 4 14 17 19 23 29 28 24 27 39 40 39 39 42 39 37 27 23 18 17 31 27 18
23 23 22 20 17 11 13 10 9 8 10 14 11 8 7 8 5 1 2 1 2 3 7 4 6 5 11 13 17 18 19 22 24 18 25 33 39 45 42 45 38 11 16 16 17 14 14
24 20 16 14 11 14 14 8 8 6 9 14 13 10 8 10 8 3 8 7 10 8 6 8 6 6 12 11 15 18 25 23 24 29 20 30 30 36 38 48 34 24 20 17 19 18 18
Wind_Direction
2 359 356 354 352 350 348 346 343 341 338 334 330 326 322 318 314 310 306 304 298 294 290 311 321 318 314 307 268 273 333 30 159 178 176 178 178 177 189 202 198 205 160 151 213 197 65
359 357 355 353 351 349 347 345 343 340 337 335 332 328 324 320 317 313 309 305 303 301 305 320 331 331 310 293 270 195 326 345 164 178 190 184 186 183 230 205 209 203 207 225 200 329 105
358 357 355 352 350 347 345 344 342 340 337 335 332 329 325 322 318 314 309 309 308 308 308 311 322 319 297 261 302 313 208 266 172 173 198 194 204 219 190 197 217 224 253 269 249 295 317
356 355 353 350 349 347 345 343 341 337 335 332 329 328 325 322 319 314 310 311 309 311 311 310 315 310 297 305 202 243 283 202 202 190 179 244 248 254 254 258 245 222 252 234 190 237 291
356 353 351 350 349 346 344 343 343 341 337 334 332 331 327 323 317 314 312 305 309 314 318 320 317 299 294 310 234 217 230 195 211 228 197 237 246 243 253 211 234 202 210 195 253 198 201
354 350 348 349 350 350 349 347 345 344 341 338 336 335 333 329 323 319 317 305 328 322 318 311 295 297 289 292 291 218 200 228 205 234 242 225 234 227 235 207 195 255 238 255 192 185 179
354 352 354 355 355 353 351 349 346 345 342 339 337 335 332 331 325 323 331 339 325 316 308 288 287 281 289 296 292 262 214 218 219 215 202 207 228 202 195 196 209 247 258 255 227 196 195
358 355 354 354 353 352 350 349 347 346 345 343 341 339 334 332 328 324 328 334 328 314 292 290 279 268 267 264 276 266 209 212 208 209 212 223 202 201 211 244 240 241 247 256 235 205 199
360 357 356 354 352 351 351 349 349 351 351 349 347 345 342 337 332 339 339 330 326 317 297 285 278 270 260 261 262 257 211 205 213 216 212 210 249 240 236 235 240 231 248 248 254 252 260
5 2 0 359 358 358 359 359 359 357 355 354 352 349 345 344 348 341 337 335 329 324 301 295 285 292 251 253 256 253 221 213 235 221 218 235 236 222 228 216 211 205 218 247 246 248 240
11 9 8 6 6 6 6 5 4 2 360 354 351 343 314 350 350 347 341 341 335 321 289 327 307 306 287 237 283 236 237 222 229 235 216 216 237 228 218 195 192 201 242 248 250 256 254
15 13 13 12 12 10 7 5 2 358 350 338 316 309 346 6 5 3 359 1 340 300 276 311 314 302 286 257 251 263 232 234 240 245 244 241 243 244 245 247 233 235 242 247 251 253 246
17 15 15 14 11 7 3 0 360 350 330 326 315 308 357 3 3 351 353 5 327 297 291 302 297 295 284 271 257 249 237 230 227 234 237 239 238 243 239 243 238 236 237 241 225 215 231
18 17 15 12 8 4 2 2 359 339 328 322 317 307 3 4 0 352 353 359 321 321 305 299 293 287 274 274 269 252 244 237 232 236 240 236 234 232 238 234 227 195 194 215 201 230 237
17 16 13 10 8 7 3 1 356 337 329 318 347 1 358 23 359 357 353 348 337 345 338 302 288 276 272 285 275 272 245 239 234 232 234 236 236 237 234 238 234 228 198 199 215 236 245
15 13 12 10 7 7 6 2 354 331 330 322 1 2 355 7 358 357 347 339 343 342 343 317 280 274 267 273 268 272 259 237 239 236 235 236 244 236 236 238 237 223 235 233 235 238 238
12 11 10 8 7 7 5 3 348 337 336 324 6 5 12 1 354 347 338 339 332 333 337 327 290 269 268 268 263 259 245 263 270 243 236 235 238 237 235 229 231 231 231 235 233 232 232
8 7 7 5 5 6 3 1 349 346 345 1 6 359 357 6 352 356 343 339 338 334 336 334 302 275 265 268 259 254 250 251 273 264 242 236 233 235 237 235 236 235 234 233 238 237 231
4 4 4 2 3 4 4 360 350 350 354 359 0 357 12 358 352 346 337 333 336 338 336 332 291 284 270 261 255 247 258 266 268 263 249 243 228 227 233 239 227 228 232 231 238 237 225
1 2 0 359 1 2 3 1 355 356 360 5 2 357 5 11 4 351 342 341 342 345 350 311 276 289 268 256 256 248 257 264 269 265 257 243 232 229 227 231 231 225 232 233 229 236 233
359 359 358 357 358 359 1 1 1 0 4 8 10 21 21 12 14 355 352 348 343 348 360 321 278 289 273 254 262 249 255 268 266 270 259 241 233 233 235 234 240 230 234 233 232 235 234
356 355 355 355 355 357 360 2 4 7 7 11 14 15 15 360 1 7 359 6 357 356 341 291 284 286 269 259 258 252 258 254 249 263 258 253 232 235 234 235 244 242 232 234 235 234 239
355 354 354 354 355 357 359 2 4 9 14 20 19 14 12 12 10 10 14 3 347 355 359 347 273 277 272 265 265 258 256 253 249 253 253 249 241 236 228 234 237 239 235 231 233 234 234
354 353 352 351 352 353 356 353 359 8 14 14 15 17 17 8 10 6 354 341 335 335 270 244 263 275 279 283 275 264 252 248 246 246 248 245 243 239 230 236 232 239 245 241 242 235 233
353 351 350 348 349 348 349 334 352 3 9 7 12 19 22 12 13 352 4 0 333 290 287 230 218 254 283 272 258 255 251 243 239 242 241 245 243 239 229 232 237 239 244 233 239 238 235
351 350 348 347 348 344 338 310 346 358 6 7 11 26 35 20 28 44 356 26 7 40 78 136 74 229 248 278 254 242 240 247 237 236 240 239 242 238 235 231 232 245 247 244 240 235 258
349 348 346 350 349 346 311 301 344 354 7 12 18 45 47 31 21 46 47 52 67 57 64 116 239 246 229 281 255 244 243 265 239 231 229 233 235 233 233 230 241 248 277 262 228 236 264
349 349 350 351 352 333 289 301 347 346 8 15 23 61 73 46 5 49 115 121 164 149 101 102 116 116 239 268 257 255 252 257 243 255 234 233 233 232 233 229 230 300 273 242 249 262 262
350 350 346 344 318 289 284 313 343 315 12 23 32 64 94 54 47 248 247 223 210 200 181 126 161 143 144 213 268 263 262 268 259 241 258 241 243 239 238 235 247 276 273 276 275 262 263